www.pogodaiklimat.ru

Погода и климат >> Архив погоды >> Испания >> Сантандер


ПОГОДА в Сантандере

  • Прогноз погоды в Сантандере
  • Монитор погоды в Сантандере

АРХИВ ПОГОДЫ в Сантандере

Время (UTC), дата Ветер
(напр.,м/с)
 
Видим.   Явления Облачность Т
(С)
Тd
(С)
f
(%)
Тe
(С)
Тes
(С)
Комфортность P
(гПа)
Po
(гПа)
Тmin
(С)
Tmax
(С)
R
(мм)
R24
(мм)
S
(см)
01 13.09 В 4 8000 м н/о +16.7 +15.1 90 +16 +16 1030.1 1023.0
02 13.09 В 3 7000 м н/о +16.1 +14.8 92 +16 +16 1030.1 1023.0
03 13.09 ЮВ 3 9000 м дымка ясно +16.1 +14.1 88 +16 +16 1030.1 1023.0
04 13.09 ЮВ 2 8000 м н/о +15.9 +14.3 90 +16 +16 1029.6 1022.5
05 13.09 Ю 4 9000 м н/о +15.9 +14.1 89 +15 +15 1029.8 1022.7
06 13.09 ЮВ 3 9000 м дымка 3/1 600 м
[Sc Ci sp]
+15.9 +13.6 86 +16 +16 1029.9 1022.8 +15.6
07 13.09 ЮЗ 2 13 км н/о +16.9 +14.2 84 +17 +17 1029.7 1022.6
08 13.09 С 1 6000 м н/о +18.2 +15.3 83 +20 +20 1029.9 1022.8
09 13.09 З 2 13 км 1/1 600 м
[Sc Ci fib]
+19.2 +15.9 81 +21 +26 комфорт 1029.6 1022.6
10 13.09 СЗ 2 8000 м н/о +19.6 +16.1 80 +22 +22 комфорт 1029.7 1022.7
11 13.09 СЗ 2 9000 м н/о +20.3 +16.9 81 +24 +24 комфорт 1029.8 1022.8
12 13.09 СЗ 3 15 км 1/1 600 м
[Sc Ci fib]
+20.0 +17.0 83 +23 +32 комфорт 1028.8 1021.8
13 13.09 СЗ 2 9000 м н/о +20.6 +18.2 86 +25 +25 комфорт 1028.4 1021.4
14 13.09 С 2 10 км н/о +21.6 +18.4 82 +26 +26 душно 1028.2 1021.3
15 13.09 СВ 4 11 км 4/3 600 м
[Cu Sc Ci sp]
+21.9 +18.9 83 +27 +31 душно 1027.7 1020.8
16 13.09 СВ 4 9000 м н/о +21.4 +19.0 86 +26 +26 душно 1027.4 1020.5
18 13.09 В 3 12 км 8/6 600 м
[Cu Sc Ci sp]
+20.2 +18.7 91 +24 +24 комфорт 1027.2 1020.2 +21.9
19 13.09 В 2 7000 м н/о +19.3 +18.1 93 +22 +22 комфорт 1027.3 1020.3
20 13.09 ЮВ 3 8000 м н/о +19.0 +17.8 93 +21 +21 комфорт 1027.7 1020.7
21 13.09 ЮВ 3 10 км 4/1 600 м
[Sc Ci fib]
+18.5 +17.5 94 +20 +20 1027.5 1020.5
22 13.09 В 2 7000 м н/о +18.4 +17.7 96 +20 +20 1027.3 1020.3
23 13.09 Ю 3 7000 м н/о +18.2 +17.6 96 +19 +19 1027.2 1020.2
00 14.09 Ю 2 10 км 8/1 600 м
[Sc Ac trans]
+18.4 +17.7 96 +20 +20 1026.7 1019.7
01 14.09 Ю 3 7000 м н/о +18.1 +17.5 96 +19 +19 1026.2 1019.2
02 14.09 ЮЗ 1 н/о н/о +17.9 +17.4 97 +19 +19 1025.5 1018.5
03 14.09 ЮЗ 2 8000 м дымка 6/0 2000 м
[Ac trans]
+18.1 +17.6 97 +19 +19 1025.2 1018.2
04 14.09 Ю 1 н/о н/о +17.7 +17.1 96 +19 +19 1024.9 1017.9
05 14.09 Ю 1 8000 м н/о +17.9 +17.3 96 +19 +19 1024.8 1017.8
06 14.09 Ю 2 8000 м дымка 9/1 1000 м
[Cu Sc Ac und]
+17.9 +17.3 96 +19 +19 1025.2 1018.2 +17.6
07 14.09 Ю 3 9000 м в посл. час дождь н/о +18.9 +18.1 95 +21 +21 комфорт 1025.1 1018.1 0.0
08 14.09 С 2 4500 м н/о +19.8 +18.3 91 +23 +23 комфорт 1025.5 1018.5
09 14.09 В 1 9000 м дымка 5/1 300 м
[Cu Sc Ac und Ci sp]
+21.0 +18.8 87 +27 +31 душно 1025.6 1018.7 0.0
10 14.09 СВ 2 8000 м н/о +20.8 +18.2 85 +25 +25 комфорт 1025.2 1018.3
11 14.09 С 2 9000 м н/о +21.1 +18.7 86 +25 +25 комфорт 1024.8 1017.9
12 14.09 С 2 8000 м дымка 4/4 300 м
[St]
+21.8 +19.0 84 +27 +34 душно 1024.3 1017.4
13 14.09 С 2 10 км н/о +22.1 +18.7 81 +27 +27 душно 1024.0 1017.1
14 14.09 СВ 2 9000 м н/о +22.7 +19.5 82 +29 +29 очень
душно
1023.5 1016.6
15 14.09 СВ 3 9000 м дымка 4/4 300 м
[St]
+22.3 +19.8 86 +28 +32 душно 1023.0 1016.1
16 14.09 СВ 4 10 км н/о +22.3 +20.0 87 +28 +28 душно 1022.8 1015.9
17 14.09 В 6 8000 м н/о +21.3 +19.6 90 +26 +26 душно 1022.8 1015.9
18 14.09 В 4 10 км 4/1 600 м
[St Ac und Ci fib]
+20.7 +19.5 93 +25 +25 комфорт 1022.8 1015.9 +22.7
19 14.09 В 3 7000 м н/о +20.2 +19.2 94 +24 +24 комфорт 1023.3 1016.4
20 14.09 В 3 10 км н/о +19.8 +18.1 90 +23 +23 комфорт 1023.3 1016.3
21 14.09 С 1 10 км 4/1 600 м
[St Ci fib]
+19.5 +17.5 88 +23 +23 комфорт 1023.4 1016.4
22 14.09 В 2 8000 м н/о +19.7 +18.9 95 +23 +23 комфорт 1023.4 1016.4
23 14.09 В 2 7000 м н/о +19.6 +18.9 96 +23 +23 комфорт 1023.3 1016.3
00 15.09 ЮВ 2 10 км 4/1 600 м
[St Ac lent Ci sp]
+19.4 +18.6 95 +22 +22 комфорт 1023.0 1016.0
01 15.09 Ю 2 11 км н/о +19.3 +18.0 92 +22 +22 комфорт 1022.6 1015.6
02 15.09 Ю 2 7000 м н/о +19.2 +17.9 92 +22 +22 комфорт 1022.1 1015.1
03 15.09 Ю 1 7000 м дымка 5/1 600 м
[St Ac trans Ci fib]
+19.1 +17.9 93 +22 +22 комфорт 1021.7 1014.7
04 15.09 З 1 3900 м н/о +18.7 +18.0 96 +21 +21 комфорт 1021.7 1014.7
05 15.09 З 2 500 м н/о +18.9 +18.6 98 +21 +21 комфорт 1021.6 1014.6
06 15.09 З 3 100 м н/о +18.7 +18.5 99 +20 +20 1021.8 1014.8 +18.7
07 15.09 ЮЗ 2 2000 м н/о +19.0 +18.8 99 +22 +22 комфорт 1022.0 1015.0
08 15.09 Ю 2 1700 м н/о +19.1 +18.9 99 +22 +22 комфорт 1022.4 1015.4
09 15.09 З 2 3000 м дымка {туман} 9/9 300 м
[St]
+19.8 +19.3 97 +24 +24 комфорт 1022.7 1015.7
10 15.09 З 3 5000 м н/о +20.2 +19.0 93 +24 +24 комфорт 1022.3 1015.4
11 15.09 СЗ 2 6000 м н/о +20.5 +19.0 91 +25 +25 комфорт 1022.1 1015.2
12 15.09 С 2 8000 м дымка {туман} 5/1 300 м
[St Ac und Ci fib]
+21.0 +19.1 89 +26 +35 душно 1021.3 1014.4 0.0
13 15.09 С 2 6000 м н/о +21.7 +19.8 89 +27 +27 душно 1021.2 1014.3
14 15.09 С 2 7000 м н/о +21.2 +19.5 90 +26 +26 душно 1021.0 1014.1
15 15.09 СВ 3 8000 м дымка {туман} 6/1 600 м
[St Ac und Ci fib]
+21.5 +19.8 90 +27 +31 душно 1020.5 1013.6
16 15.09 В 3 7000 м н/о +21.0 +19.5 91 +26 +26 душно 1019.6 1012.7
17 15.09 В 3 15 км н/о +21.6 +18.6 83 +26 +26 душно 1019.7 1012.8
18 15.09 В 2 18 км осадки на расстоянии 8/4 1000 м
[Cu Sc Ac und]
+20.7 +18.1 85 +25 +25 комфорт 1019.5 1012.6 +22.2
19 15.09 ЮЗ 3 15 км в посл. час дождь н/о +20.6 +18.7 89 +25 +25 комфорт 1019.6 1012.7 0.0
20 15.09 С 3 4200 м н/о +20.1 +19.1 94 +24 +24 комфорт 1020.0 1013.1
21 15.09 ЮВ 4 10 км {ливн. осадки} 9/8 1000 м
[Cu Sc Ac As]
+20.2 +18.1 88 +24 +24 комфорт 1020.5 1013.6 0.0
22 15.09 ЮВ 3 18 км в посл. час дождь н/о +20.0 +17.6 86 +23 +23 комфорт 1020.5 1013.6 0.0
23 15.09 Ю 1 14 км н/о +20.1 +17.9 87 +24 +24 комфорт 1020.2 1013.3
00 16.09 Ю 1 10 км {ливн. осадки} 8/4 1000 м
[Cu Sc Ac As Ci sp]
+20.2 +18.1 88 +25 +25 комфорт 1020.3 1013.4 0.0
01 16.09 З 2 4100 м слаб. дождь н/о +19.9 +19.2 96 +24 +24 комфорт 1020.3 1013.4 0.0
02 16.09 В 2 4500 м н/о +19.4 +18.7 96 +23 +23 комфорт 1020.1 1013.2
03 16.09 С 1 6000 м дымка 9/4 1000 м
[Cu Sc Ac As Ci sp]
+19.4 +18.6 95 +23 +23 комфорт 1019.5 1012.6 0.0
04 16.09 Ю 2 н/о н/о +18.9 +18.1 95 +21 +21 комфорт 1019.5 1012.5
05 16.09 ЮЗ 3 2500 м н/о +19.2 +18.7 97 +22 +22 комфорт 1019.3 1012.4
06 16.09 ЮЗ 2 500 м туман 6/3 1000 м
[Sc Ac und Ci sp]
+18.6 +18.3 98 +20 +20 1019.6 1012.6 +18.6
07 16.09 ЮЗ 1 2700 м н/о +19.1 +18.8 98 +22 +22 комфорт 1019.8 1012.9
08 16.09 СЗ 1 6000 м н/о +19.5 +18.8 96 +23 +23 комфорт 1020.2 1013.3
09 16.09 З 2 8000 м дымка {туман} 8/0
[Ac cast Ci sp]
+20.8 +19.1 90 +26 +29 душно 1020.2 1013.3
10 16.09 З 4 7000 м в посл. час дождь н/о +20.7 +19.4 92 +25 +25 комфорт 1020.2 1013.3 0.0
11 16.09 СЗ 3 11 км н/о +21.3 +19.4 89 +26 +26 душно 1020.3 1013.4
12 16.09 СЗ 2 9000 м дымка {дождь, туман} 9/9 300 м
[St Ac cast]
+21.8 +19.9 89 +27 +29 душно 1020.2 1013.3 0.0
13 16.09 СЗ 2 10 км н/о +22.5 +20.2 87 +29 +29 очень
душно
1020.0 1013.1
14 16.09 СЗ 2 11 км н/о +22.2 +19.9 87 +28 +28 душно 1019.6 1012.7
15 16.09 СЗ 3 10 км 3/1 600 м
[Cu hum Ac trans]
+22.2 +19.9 87 +28 +33 душно 1019.4 1012.5
16 16.09 З 2 13 км н/о +22.3 +19.8 86 +28 +28 душно 1019.0 1012.1
17 16.09 З 3 13 км н/о +22.0 +19.7 87 +28 +28 душно 1019.1 1012.2
18 16.09 З 2 12 км 3/1 300 м
[St Ac cast Ci ing]
+21.1 +19.6 91 +26 +26 душно 1019.5 1012.6 +22.5
19 16.09 ЮЗ 2 н/о н/о +20.5 +19.5 94 +25 +25 комфорт 1019.5 1012.6
20 16.09 ЮЗ 2 8000 м н/о +20.3 +19.3 94 +25 +25 комфорт 1019.7 1012.8
21 16.09 СЗ 3 8000 м 3/0
[Ac trans Ci fib]
+19.9 +18.9 94 +23 +23 комфорт 1020.1 1013.2
22 16.09 З 2 4300 м н/о +19.8 +19.3 97 +23 +23 комфорт 1019.9 1013.0
23 16.09 З 1 н/о н/о +19.8 +19.3 97 +24 +24 комфорт 1019.6 1012.7
00 17.09 ЮЗ 1 6000 м дымка 4/0
[Ac trans]
+19.9 +19.4 97 +24 +24 комфорт 1019.3 1012.4
01 17.09 В 1 5000 м н/о +19.8 +19.5 98 +24 +24 комфорт 1018.9 1012.0
02 17.09 Ю 2 4000 м н/о +19.3 +18.8 97 +22 +22 комфорт 1018.7 1011.8
03 17.09 Ю 3 6000 м дымка 6/1 600 м
[St Ac trans]
+19.2 +18.9 98 +22 +22 комфорт 1018.2 1011.3
04 17.09 ЮЗ 2 4600 м н/о +19.3 +18.8 97 +22 +22 комфорт 1017.9 1011.0
05 17.09 ЮЗ 2 3600 м н/о +19.3 +18.8 97 +22 +22 комфорт 1017.9 1011.0
06 17.09 З 1 5000 м дымка 6/3 600 м
[St Ac und Ci fib]
+19.0 +18.3 96 +22 +22 комфорт 1018.0 1011.1 +19.0
07 17.09 ЮЗ 2 4600 м н/о +19.3 +18.8 97 +22 +22 комфорт 1018.3 1011.4
08 17.09 ЮЗ 2 4300 м н/о +19.8 +19.0 95 +23 +23 комфорт 1018.5 1011.6
09 17.09 З 2 4000 м дымка 8/0 1500 м
[Ac trans]
+20.8 +19.8 94 +26 +29 душно 1018.6 1011.7
10 17.09 СЗ 3 4200 м н/о +21.3 +19.9 92 +26 +26 душно 1018.5 1011.6
11 17.09 СЗ 3 2200 м н/о +21.8 +19.7 88 +27 +27 душно 1018.3 1011.4
12 17.09 СЗ 2 5000 м дымка 9/4 600 м
[Cu hum Ac trans]
+22.1 +20.2 89 +28 +32 душно 1018.0 1011.1
13 17.09 СЗ 2 7000 м н/о +22.2 +20.3 89 +28 +28 душно 1017.7 1010.8
14 17.09 СЗ 3 6000 м н/о +21.6 +20.2 92 +27 +27 душно 1017.3 1010.4
15 17.09 СЗ 3 8000 м дымка 5/4 600 м
[Cu hum Ac trans]
+21.7 +20.3 92 +27 +31 душно 1016.8 1009.9
16 17.09 С 3 12 км н/о +22.0 +20.1 89 +28 +28 душно 1016.5 1009.6
17 17.09 СЗ 2 11 км н/о +22.0 +19.9 88 +28 +28 душно 1016.3 1009.4
18 17.09 З 2 9000 м дымка 4/0 1500 м
[Ac trans Cc]
+21.2 +19.8 92 +26 +26 душно 1016.4 1009.5 +22.5
19 17.09 З 2 6000 м н/о +20.4 +19.7 96 +25 +25 комфорт 1016.6 1009.7
20 17.09 З 2 7000 м н/о +20.5 +19.8 96 +25 +25 комфорт 1017.6 1010.7
21 17.09 З 3 9000 м дымка 5/1 1000 м
[Cu hum Ac trans Cc]
+20.1 +19.6 97 +24 +24 комфорт 1017.5 1010.6
22 17.09 З 3 7000 м н/о +20.3 +19.8 97 +25 +25 комфорт 1017.9 1011.0
23 17.09 З 3 8000 м н/о +20.2 +19.7 97 +24 +24 комфорт 1017.7 1010.8
00 18.09 З 3 9000 м дымка 5/1 1000 м
[Cu hum Ac trans Cc]
+19.7 +19.2 97 +23 +23 комфорт 1016.8 1009.9
01 18.09 З 3 9000 м н/о +19.5 +19.2 98 +22 +22 комфорт 1016.8 1009.9
02 18.09 ЮЗ 3 10 км н/о +19.5 +19.0 97 +22 +22 комфорт 1016.7 1009.8
03 18.09 З 3 8000 м дымка 5/1 600 м
[Cu hum Ac trans Ci sp]
+19.5 +18.8 96 +22 +22 комфорт 1016.2 1009.3
04 18.09 З 3 н/о н/о +19.4 +19.1 98 +22 +22 комфорт 1016.1 1009.2
05 18.09 З 2 7000 м н/о +19.5 +19.2 98 +23 +23 комфорт 1016.2 1009.3
06 18.09 ЮЗ 2 8000 м дымка 8/5 300 м
[Cu Sc Ac trans Ci sp]
+19.6 +19.3 98 +23 +23 комфорт 1016.2 1009.3 +19.3
07 18.09 ЮЗ 3 7000 м н/о +19.6 +19.3 98 +23 +23 комфорт 1016.8 1009.9
08 18.09 ЮЗ 3 10 км н/о +20.0 +19.3 96 +24 +24 комфорт 1017.4 1010.5
09 18.09 З 3 7000 м дымка {ливн. осадки} 9/8 300 м
[Cu Sc Ci sp]
+20.5 +19.7 95 +25 +26 комфорт 1018.0 1011.1 0.0
10 18.09 З 4 9000 м н/о +20.9 +19.9 94 +26 +26 душно 1018.3 1011.4
12 18.09 СЗ 3 10 км {ливн. осадки} 9/3 600 м
[Cu Sc Ac trans Ci sp]
+21.8 +20.1 90 +27 +31 душно 1018.2 1011.3
13 18.09 С 4 16 км н/о +21.7 +19.3 86 +27 +27 душно 1018.3 1011.4
14 18.09 СВ 5 14 км н/о +21.8 +18.8 83 +27 +27 душно 1018.5 1011.6
15 18.09 СВ 4 10 км 4/1 600 м
[Cu Sc Ac trans]
+21.4 +18.2 82 +26 +29 душно 1018.3 1011.4
16 18.09 СВ 4 15 км н/о +20.7 +17.5 82 +25 +25 комфорт 1018.2 1011.3
17 18.09 СВ 3 11 км н/о +20.3 +17.1 82 +24 +24 комфорт 1018.5 1011.6
18 18.09 СВ 3 10 км 4/3 600 м
[Cu Sc Ac trans]
+19.5 +16.9 85 +22 +22 комфорт 1018.8 1011.9 +22.1
19 18.09 С 2 9000 м н/о +18.8 +16.8 88 +21 +21 комфорт 1019.2 1012.2
20 18.09 С 2 9000 м н/о +19.0 +16.6 86 +21 +21 комфорт 1019.7 1012.7
21 18.09 С 2 9000 м дымка 10/10 300 м
[St]
+19.0 +16.8 87 +21 +21 комфорт 1019.9 1012.9
22 18.09 СЗ 2 12 км н/о +19.1 +16.7 86 +21 +21 комфорт 1020.1 1013.1
23 18.09 З 2 6000 м н/о +18.7 +16.1 85 +20 +20 1019.9 1012.9
00 19.09 З 3 10 км ясно +18.3 +16.3 88 +19 +19 1019.7 1012.7
01 19.09 ЮЗ 3 6000 м н/о +18.0 +16.3 90 +18 +18 1019.4 1012.4
02 19.09 ЮЗ 3 н/о н/о +17.7 +16.6 93 +18 +18 1019.2 1012.2
03 19.09 ЮЗ 3 3700 м н/о +17.9 +16.6 92 +18 +18 1018.8 1011.8
04 19.09 ЮЗ 3 н/о н/о +17.8 +16.7 93 +18 +18 1018.7 1011.7
05 19.09 ЮЗ 3 6000 м н/о +17.8 +16.5 92 +18 +18 1018.7 1011.7
06 19.09 ЮЗ 3 10 км ясно +17.5 +16.2 92 +18 +18 1018.8 1011.8 +17.5
07 19.09 Ю 3 6000 м н/о +18.1 +16.4 90 +19 +19 1019.3 1012.3
08 19.09 ЮЗ 3 6000 м н/о +19.3 +16.5 84 +21 +21 комфорт 1019.5 1012.6
09 19.09 З 2 15 км 1/1 600 м
[Cu hum]
+21.0 +17.2 79 +26 +31 душно 1019.6 1012.7
10 19.09 С 2 11 км н/о +20.4 +17.4 83 +24 +24 комфорт 1019.6 1012.7
11 19.09 С 2 7000 м н/о +20.6 +18.0 85 +25 +25 комфорт 1019.4 1012.5
12 19.09 С 3 18 км 1/1 600 м
[Cu hum]
+20.9 +17.5 81 +25 +34 комфорт 1019.0 1012.1
13 19.09 СВ 5 11 км н/о +21.7 +16.2 71 +25 +25 комфорт 1018.5 1011.6
14 19.09 СВ 5 16 км н/о +21.5 +15.6 69 +25 +25 комфорт 1018.1 1011.2
15 19.09 СВ 5 20 км ясно +21.1 +15.2 69 +24 +27 комфорт 1017.7 1010.8
16 19.09 СВ 5 18 км н/о +20.5 +14.8 70 +23 +23 комфорт 1017.5 1010.6
17 19.09 В 5 20 км н/о +19.8 +14.8 73 +22 +22 комфорт 1017.4 1010.5
18 19.09 В 5 18 км 1/1 600 м
[St Ac cuf]
+19.0 +14.7 76 +20 +20 1017.3 1010.4 +22.0
19 19.09 В 4 13 км н/о +18.3 +14.8 80 +19 +19 1017.7 1010.7
20 19.09 В 4 13 км н/о +17.9 +15.0 83 +18 +18 1017.9 1010.9
21 19.09 В 3 15 км ясно +17.6 +15.0 85 +18 +18 1018.0 1011.0
22 19.09 ЮВ 2 13 км н/о +16.8 +14.6 87 +17 +17 1017.5 1010.5
23 19.09 Ю 2 9000 м н/о +16.8 +14.8 88 +17 +17 1016.9 1009.9
00 20.09 ЮВ 3 10 км ясно +16.7 +15.1 90 +16 +16 1016.3 1009.3
01 20.09 ЮВ 4 12 км н/о +16.6 +15.1 91 +16 +16 1015.7 1008.7

 

Местоположение метеостанции Сантандер (Испания): широта 43.48 долгота -3.80 высота над уровнем моря 59 м.

В архиве по умолчанию представлена погода в Сантандере за последнюю неделю. Архивные данные за месяц целиком и за предыдущие месяцы, начиная с января 2011 года, Вы можете получить, выбрав интересующий диапазон дат из раскрывающегося списка и нажав кнопку "Ввод!".


*Определитесь, кто Вы:
робот инопланетянин человек

Внимание! Время в таблицах - всемирное. Для получения местного времени необходимо прибавить поправку, которая равна 1 ч.

Смотрите также архив погоды в соседних городах и на ближайших метеорологических станциях:

Погода в Сантандер аэропорту (Испания) (6 км)
Погода в Кастро-Урдьялесе (Испания) (47 км)
Погода на Мысе Сан-Висенте (Испания) (49 км)
Погода в Нестаресе (Испания) (62 км)
Погода в Пунта Галеа (Испания) (64 км)
Погода в Гуэньесе (Испания) (65 км)
Погода в Медина-де-Помаре (Испания) (67 км)
Погода в Бильбао (Испания) (73 км)
Погода в Полиентес-Касисе (Испания) (75 км)
Погода в Льянесе (Испания) (77 км)

Пояснения к столбцам:

Ветер - указаны скорость ветра в м/с - средняя за 10 мин, порывы в срок и между сроками (в фигурных скобках) и направление, откуда дует ветер: С - северный, СВ - северо-восточный, В - восточный, ЮВ - юго-восточный, Ю - южный, ЮЗ - юго-западный, З - западный, СЗ - северо-западный.
Видимость - горизонтальная дальность видимости в метрах или километрах. При видимости от 1 до 10 км при отсутствии осадков обычно наблюдается дымка, при ухудшении видимости до 1 км и менее - туман. В сухую погоду видимость может ухудшаться дымом, пылью или мглою.
Явления - указаны атмосферные явления, наблюдавшиеся в срок или в последний час перед сроком; фигурными скобками обозначены явления, наблюдавшиеся между сроками (за 1-3 часа до срока); квадратными скобками обозначены град или гололедные отложения с указанием их диаметра в мм.
Облачность - указаны через наклонную черту общая и нижняя облачность в баллах и высота нижней границы облаков в метрах; квадратными скобками обозначены формы облаков: Ci - перистые, Cs - перисто-слоистые, Cc - перисто-кучевые, Ac - высококучевые, As - высокослоистые, Sc - слоисто-кучевые, Ns - слоисто-дождевые, Cu - кучевые, Cb - кучево-дождевые. Подробнее классификацию облаков см. в Атласе облаков (PDF).
T - Температура воздуха - температура, измеренная на высоте 2 м над землей.
Td - Температура точки росы - температура, при понижении до которой содержащийся в воздухе водяной пар достигнет насыщения.
f - Относительная влажность воздуха - влажноcть воздуха, измеренная на высоте 2 м над землей.
Te - Эффективная температура - температура, которую ощущает одетый по сезону человек в тени. Характеристика душности погоды. При расчете учитывается влияние влажности воздуха и скорости ветра на теплоощущения человека.
Tes - Эффективная температура на солнце - температура, которую ощущает человек, с поправкой на солнечный нагрев. Характеристика знойности погоды. Зависит от высоты солнца над горизонтом, облачности и скорости ветра. Ночью, в пасмурную погоду, а также при ветре 12 м/с и более поправка равна нулю.
P - Атмосферное давление - приведенное к уровню моря атмосферное давление.
Po - Атмосферное давление - измеренное на уровне метеостанции атмосферное давление.
Tmin - Минимальная температура - минимум температуры воздуха на высоте 2 м над землей.
Tmax - Максимальная температура - максимум температуры воздуха на высоте 2 м над землей.
R - Количество осадков - Количество выпавших осадков за период времени, мм. При наведении курсора мыши на число - период времени, за который выпало указанное количество осадков.
R24 - Количество осадков - Количество выпавших осадков за 24 часа, мм.
S - Снежный покров - Высота снежного покрова, см. При наведении курсора мыши на число - состояние снежного покрова и степень покрытия местности в баллах.